Total_Precipitation_Accumulation
0.00 0.00 0.00 0.03 0.19 0.22 0.03 0.00 0.00 0.00 0.00 0.00 0.00 0.00 0.00 0.04 0.00 0.01 0.00 0.00 0.00 0.00 0.00 0.00 0.02 0.06 0.01 0.00 0.00 0.00 0.00 0.01 0.03 0.03 0.04 0.03 0.03 0.01 0.00 0.01 0.01 0.02 0.02 0.04 0.04 0.04 0.04 0.03 0.03
0.00 0.00 0.02 0.19 0.49 0.18 0.02 0.00 0.00 0.00 0.00 0.00 0.00 0.00 0.01 0.00 0.00 0.00 0.00 0.00 0.00 0.00 0.00 0.00 0.00 0.00 0.00 0.00 0.00 0.00 0.01 0.01 0.01 0.02 0.02 0.07 0.09 0.03 0.02 0.02 0.03 0.04 0.02 0.01 0.01 0.01 0.00 0.00 0.01
0.00 0.00 0.23 0.46 0.40 0.11 0.00 0.00 0.00 0.00 0.00 0.00 0.00 0.01 0.00 0.00 0.00 0.00 0.00 0.01 0.01 0.01 0.01 0.00 0.00 0.00 0.00 0.00 0.00 0.00 0.00 0.00 0.01 0.00 0.01 0.06 0.06 0.04 0.04 0.05 0.06 0.06 0.03 0.05 0.03 0.02 0.00 0.00 0.00
0.01 0.17 0.16 0.57 0.28 0.05 0.00 0.00 0.00 0.00 0.00 0.00 0.00 0.00 0.00 0.00 0.00 0.00 0.00 0.05 0.02 0.04 0.03 0.00 0.00 0.00 0.00 0.00 0.00 0.00 0.00 0.00 0.00 0.01 0.04 0.09 0.06 0.06 0.04 0.10 0.20 0.14 0.04 0.04 0.02 0.01 0.01 0.01 0.00
0.05 0.44 0.61 0.50 0.15 0.01 0.00 0.00 0.00 0.00 0.00 0.03 0.01 0.00 0.00 0.00 0.00 0.00 0.00 0.01 0.02 0.02 0.00 0.00 0.02 0.05 0.05 0.02 0.00 0.00 0.03 0.01 0.02 0.02 0.04 0.07 0.03 0.05 0.06 0.14 0.25 0.07 0.00 0.01 0.02 0.00 0.00 0.00 0.00
0.25 0.30 0.37 0.22 0.41 0.05 0.00 0.00 0.00 0.00 0.01 0.01 0.00 0.00 0.00 0.00 0.00 0.00 0.00 0.00 0.00 0.01 0.00 0.00 0.02 0.04 0.02 0.01 0.00 0.02 0.06 0.02 0.02 0.03 0.05 0.08 0.05 0.04 0.20 0.25 0.02 0.00 0.00 0.00 0.00 0.00 0.00 0.00 0.00
0.17 0.27 0.19 0.07 0.31 0.17 0.01 0.00 0.00 0.00 0.00 0.00 0.00 0.00 0.00 0.00 0.00 0.00 0.00 0.00 0.00 0.03 0.00 0.00 0.00 0.03 0.00 0.00 0.00 0.01 0.01 0.01 0.03 0.05 0.05 0.04 0.01 0.01 0.05 0.01 0.00 0.00 0.00 0.00 0.00 0.00 0.00 0.00 0.00
0.12 0.27 0.25 0.09 0.16 0.39 0.03 0.00 0.00 0.00 0.02 0.00 0.00 0.00 0.00 0.00 0.00 0.00 0.00 0.00 0.00 0.00 0.12 0.10 0.00 0.07 0.10 0.00 0.01 0.01 0.03 0.01 0.01 0.01 0.03 0.02 0.00 0.00 0.02 0.07 0.00 0.00 0.00 0.00 0.00 0.00 0.00 0.00 0.00
0.09 0.31 0.35 0.29 0.13 0.36 0.05 0.00 0.01 0.01 0.01 0.00 0.00 0.00 0.00 0.00 0.00 0.00 0.00 0.00 0.00 0.01 0.12 0.08 0.01 0.01 0.05 0.00 0.03 0.03 0.05 0.05 0.09 0.05 0.05 0.06 0.00 0.00 0.03 0.09 0.00 0.00 0.00 0.00 0.00 0.00 0.00 0.00 0.00
0.09 0.33 0.27 0.13 0.04 0.13 0.03 0.02 0.01 0.00 0.00 0.00 0.00 0.00 0.00 0.00 0.00 0.00 0.00 0.00 0.00 0.01 0.04 0.03 0.02 0.02 0.00 0.00 0.03 0.06 0.10 0.05 0.03 0.19 0.56 0.51 0.01 0.09 0.00 0.00 0.00 0.00 0.00 0.00 0.00 0.00 0.00 0.00 0.00
0.02 0.18 0.15 0.04 0.03 0.11 0.03 0.01 0.00 0.00 0.00 0.00 0.00 0.00 0.00 0.00 0.00 0.00 0.00 0.00 0.00 0.02 0.01 0.01 0.01 0.00 0.00 0.00 0.00 0.15 0.22 0.17 0.51 0.70 0.56 0.11 0.00 0.00 0.00 0.00 0.00 0.00 0.02 0.11 0.05 0.00 0.00 0.02 0.00
0.09 0.07 0.04 0.03 0.05 0.14 0.04 0.01 0.00 0.00 0.00 0.00 0.00 0.00 0.00 0.00 0.00 0.00 0.00 0.00 0.00 0.00 0.00 0.00 0.00 0.00 0.00 0.00 0.00 0.02 0.01 0.04 0.58 0.43 0.26 0.28 0.04 0.00 0.00 0.00 0.00 0.01 0.06 0.32 0.27 0.00 0.00 0.00 0.00
0.06 0.12 0.02 0.01 0.08 0.08 0.06 0.01 0.01 0.00 0.00 0.00 0.00 0.00 0.00 0.00 0.00 0.00 0.00 0.00 0.00 0.00 0.00 0.00 0.00 0.00 0.01 0.00 0.00 0.00 0.00 0.00 0.05 0.25 0.30 0.19 0.00 0.00 0.00 0.00 0.01 0.05 0.10 0.07 0.00 0.02 0.00 0.00 0.00
0.04 0.09 0.06 0.03 0.05 0.06 0.05 0.01 0.00 0.00 0.00 0.00 0.00 0.00 0.00 0.00 0.00 0.00 0.00 0.00 0.00 0.00 0.00 0.00 0.00 0.00 0.00 0.00 0.00 0.02 0.01 0.00 0.01 0.01 0.07 0.07 0.00 0.00 0.00 0.00 0.00 0.03 0.07 0.05 0.00 0.00 0.00 0.00 0.00
0.02 0.29 0.24 0.05 0.07 0.12 0.04 0.01 0.00 0.00 0.00 0.00 0.00 0.00 0.00 0.00 0.00 0.00 0.00 0.00 0.00 0.00 0.00 0.00 0.00 0.00 0.00 0.00 0.00 0.00 0.00 0.00 0.00 0.00 0.00 0.00 0.00 0.00 0.00 0.00 0.00 0.00 0.00 0.00 0.00 0.00 0.00 0.00 0.00
0.02 0.38 0.43 0.26 0.25 0.25 0.08 0.05 0.00 0.00 0.00 0.00 0.00 0.00 0.00 0.00 0.00 0.00 0.00 0.00 0.00 0.00 0.00 0.00 0.00 0.00 0.00 0.00 0.01 0.00 0.00 0.00 0.00 0.00 0.00 0.00 0.00 0.00 0.00 0.00 0.00 0.00 0.00 0.00 0.00 0.00 0.00 0.00 0.00
0.05 0.19 0.51 0.46 0.74 0.87 0.13 0.10 0.01 0.01 0.00 0.00 0.00 0.00 0.00 0.00 0.00 0.00 0.00 0.00 0.00 0.00 0.00 0.00 0.00 0.00 0.00 0.01 0.01 0.00 0.00 0.00 0.00 0.00 0.00 0.00 0.00 0.00 0.00 0.00 0.00 0.00 0.00 0.00 0.00 0.00 0.00 0.00 0.00
0.03 0.10 0.28 0.33 0.77 0.98 0.50 0.38 0.06 0.02 0.01 0.00 0.00 0.00 0.00 0.00 0.00 0.00 0.00 0.00 0.00 0.00 0.00 0.00 0.00 0.00 0.00 0.01 0.01 0.00 0.00 0.00 0.00 0.00 0.00 0.00 0.00 0.00 0.00 0.00 0.00 0.03 0.02 0.01 0.01 0.00 0.00 0.00 0.00
0.04 0.13 0.42 0.17 0.32 0.96 1.25 0.77 0.16 0.02 0.05 0.00 0.00 0.00 0.00 0.00 0.00 0.00 0.00 0.00 0.00 0.00 0.00 0.00 0.00 0.00 0.00 0.00 0.00 0.00 0.00 0.00 0.00 0.00 0.00 0.00 0.00 0.00 0.00 0.01 0.01 0.35 0.12 0.03 0.01 0.03 0.00 0.00 0.01
0.01 0.17 0.33 0.30 0.33 0.50 1.15 0.87 0.22 0.05 0.04 0.01 0.00 0.00 0.00 0.00 0.00 0.00 0.00 0.00 0.00 0.00 0.00 0.00 0.02 0.00 0.03 0.00 0.01 0.00 0.01 0.01 0.01 0.00 0.00 0.01 0.03 0.02 0.00 0.01 0.08 0.41 0.07 0.00 0.01 0.03 0.00 0.00 0.00
0.01 0.11 0.30 0.28 0.17 0.18 0.36 1.15 0.64 0.14 0.17 0.15 0.01 0.00 0.01 0.01 0.01 0.00 0.00 0.00 0.00 0.00 0.00 0.00 0.02 0.02 0.03 0.03 0.02 0.05 0.12 0.08 0.06 0.04 0.00 0.00 0.01 0.00 0.02 0.00 0.09 0.18 0.07 0.00 0.00 0.00 0.00 0.00 0.02
0.00 0.03 0.42 0.95 0.28 0.15 0.05 0.43 1.06 0.34 0.23 0.36 0.08 0.01 0.01 0.01 0.01 0.00 0.00 0.00 0.00 0.00 0.00 0.00 0.01 0.03 0.01 0.04 0.07 0.08 0.09 0.08 0.01 0.00 0.01 0.01 0.01 0.00 0.00 0.02 0.04 0.14 0.53 0.03 0.00 0.00 0.01 0.02 0.01
0.00 0.00 0.40 0.37 0.22 0.05 0.02 0.14 0.40 0.40 0.25 0.17 0.09 0.01 0.02 0.00 0.00 0.02 0.00 0.00 0.00 0.00 0.00 0.00 0.00 0.03 0.03 0.06 0.13 0.07 0.03 0.01 0.00 0.00 0.05 0.07 0.01 0.00 0.00 0.01 0.05 0.10 0.11 0.04 0.01 0.00 0.02 0.05 0.05
0.00 0.00 0.06 0.28 0.18 0.11 0.02 0.04 0.09 0.14 0.09 0.01 0.02 0.01 0.01 0.02 0.00 0.01 0.03 0.01 0.02 0.00 0.00 0.00 0.00 0.02 0.09 0.08 0.04 0.13 0.19 0.31 0.08 0.04 0.03 0.00 0.00 0.00 0.00 0.00 0.03 0.07 0.11 0.03 0.00 0.00 0.01 0.03 0.25
0.00 0.01 0.12 0.15 0.08 0.11 0.02 0.02 0.03 0.00 0.00 0.00 0.00 0.01 0.00 0.01 0.01 0.00 0.03 0.03 0.02 0.02 0.00 0.00 0.00 0.00 0.01 0.02 0.02 0.06 0.15 0.28 0.08 0.06 0.01 0.02 0.01 0.01 0.01 0.02 0.01 0.01 0.05 0.03 0.01 0.00 0.02 0.00 0.02
0.00 0.00 0.07 0.15 0.12 0.11 0.03 0.03 0.02 0.00 0.00 0.01 0.00 0.00 0.00 0.02 0.01 0.01 0.01 0.03 0.04 0.01 0.01 0.00 0.00 0.00 0.00 0.00 0.01 0.06 0.07 0.03 0.03 0.05 0.21 0.07 0.02 0.00 0.01 0.02 0.02 0.00 0.01 0.01 0.00 0.00 0.00 0.00 0.00
0.00 0.00 0.00 0.04 0.07 0.12 0.14 0.25 0.03 0.02 0.00 0.01 0.02 0.00 0.00 0.01 0.03 0.00 0.00 0.01 0.04 0.02 0.00 0.00 0.00 0.00 0.00 0.00 0.00 0.00 0.01 0.01 0.09 0.15 0.27 0.12 0.04 0.04 0.03 0.01 0.01 0.00 0.00 0.00 0.00 0.00 0.01 0.01 0.00
0.00 0.00 0.00 0.01 0.04 0.04 0.11 0.16 0.20 0.03 0.00 0.01 0.03 0.02 0.01 0.00 0.01 0.00 0.01 0.01 0.01 0.00 0.00 0.00 0.00 0.00 0.00 0.00 0.00 0.00 0.00 0.01 0.02 0.04 0.05 0.09 0.26 0.59 0.35 0.02 0.02 0.03 0.03 0.01 0.01 0.02 0.01 0.00 0.00
0.00 0.00 0.00 0.00 0.00 0.02 0.06 0.07 0.14 0.10 0.06 0.00 0.02 0.03 0.02 0.00 0.00 0.00 0.00 0.00 0.00 0.00 0.00 0.00 0.00 0.00 0.00 0.00 0.00 0.00 0.00 0.00 0.00 0.00 0.01 0.03 0.16 0.13 0.17 0.02 0.01 0.01 0.01 0.02 0.04 0.04 0.04 0.02 0.00
0.00 0.00 0.00 0.00 0.00 0.00 0.00 0.03 0.04 0.10 0.09 0.00 0.01 0.04 0.04 0.01 0.00 0.00 0.00 0.04 0.08 0.00 0.02 0.23 0.09 0.00 0.00 0.00 0.00 0.00 0.00 0.00 0.00 0.00 0.00 0.02 0.05 0.06 0.06 0.05 0.02 0.01 0.04 0.12 0.05 0.02 0.04 0.09 0.02